TimeEST,TemperatureF,Dew PointF,Humidity,Sea Level PressureIn,VisibilityMPH,Wind Direction,Wind SpeedMPH,Gust SpeedMPH,PrecipitationIn,Events,Conditions,WindDirDegrees,DateUTC
12:54 AM,30.0,26.1,85,30.24,10.0,Calm,Calm,-,N/A,,Overcast,0,2013-02-26 05:54:00
1:54 AM,28.9,25.0,85,30.23,10.0,Calm,Calm,-,N/A,,Overcast,0,2013-02-26 06:54:00
2:54 AM,28.0,24.1,85,30.27,10.0,Calm,Calm,-,N/A,,Mostly Cloudy,0,2013-02-26 07:54:00
4:54 AM,24.1,21.0,88,30.27,8.0,Calm,Calm,-,N/A,,Clear,0,2013-02-26 09:54:00
5:54 AM,23.0,19.9,88,30.29,8.0,Calm,Calm,-,N/A,,Clear,0,2013-02-26 10:54:00
6:54 AM,21.9,19.0,89,30.30,8.0,Calm,Calm,-,N/A,,Clear,0,2013-02-26 11:54:00
7:54 AM,28.0,24.1,85,30.30,10.0,Calm,Calm,-,N/A,,Clear,0,2013-02-26 12:54:00
9:54 AM,37.9,26.1,62,30.28,10.0,SE,4.6,-,N/A,,Clear,140,2013-02-26 14:54:00
10:54 AM,41.0,26.1,55,30.28,10.0,ESE,8.1,-,N/A,,Overcast,120,2013-02-26 15:54:00
11:54 AM,39.0,25.0,57,30.27,10.0,ESE,8.1,-,N/A,,Overcast,120,2013-02-26 16:54:00
12:54 PM,39.0,24.1,55,30.27,10.0,ESE,9.2,-,N/A,,Overcast,120,2013-02-26 17:54:00
1:54 PM,39.0,25.0,57,30.25,10.0,ESE,10.4,-,N/A,,Overcast,120,2013-02-26 18:54:00
2:54 PM,37.9,25.0,60,30.22,10.0,ESE,11.5,-,N/A,,Overcast,120,2013-02-26 19:54:00
3:54 PM,37.9,24.1,57,30.22,10.0,SE,9.2,18.4,N/A,,Overcast,140,2013-02-26 20:54:00
4:54 PM,37.9,24.1,57,30.20,10.0,SE,8.1,-,N/A,,Overcast,130,2013-02-26 21:54:00
5:54 PM,37.0,24.1,59,30.19,10.0,SE,8.1,-,N/A,,Overcast,140,2013-02-26 22:54:00
6:54 PM,37.0,25.0,62,30.18,10.0,ESE,4.6,-,N/A,,Overcast,120,2013-02-26 23:54:00
7:54 PM,37.0,26.1,65,30.18,10.0,SE,9.2,16.1,N/A,,Overcast,130,2013-02-27 00:54:00
8:54 PM,37.0,26.1,65,30.15,10.0,SE,12.7,-,N/A,,Mostly Cloudy,130,2013-02-27 01:54:00
9:54 PM,36.0,24.1,62,30.09,10.0,East,9.2,21.9,N/A,,Partly Cloudy,100,2013-02-27 02:54:00
10:54 PM,36.0,21.0,55,30.06,10.0,ESE,15.0,25.3,N/A,,Clear,110,2013-02-27 03:54:00
11:54 PM,36.0,21.9,57,30.04,10.0,ESE,17.3,38.0,N/A,,Overcast,110,2013-02-27 04:54:00